RH
5 6 6 6 6 5 5 6 16 18 13 8 8 12 15 14 12 10 6 10 7 18 17 16 17 15 12 11 12 12 16 16 16 16 15 14 19 20 22 23 24 25 28 40 54
6 6 6 6 7 6 6 6 15 17 14 9 8 11 11 14 13 12 9 5 5 16 16 14 12 13 12 9 10 9 14 14 13 14 16 16 17 20 21 22 23 23 26 30 34
6 7 7 7 8 7 7 7 12 14 13 9 9 10 12 13 24 15 8 4 6 13 14 13 11 11 11 10 9 10 14 11 11 14 17 18 19 21 21 22 23 23 25 30 33
7 8 8 8 8 8 8 7 7 11 15 12 15 14 14 16 16 17 11 12 10 9 10 10 10 10 10 11 10 11 10 11 12 13 16 19 20 21 22 22 21 24 25 28 32
8 9 9 10 10 9 8 7 7 7 12 9 12 15 14 14 17 14 12 12 10 8 9 9 10 9 10 11 10 11 11 12 12 14 16 18 20 20 20 21 20 20 24 27 31
9 10 10 11 10 9 8 11 16 13 12 13 17 16 16 14 17 16 12 11 12 10 10 10 10 10 10 10 10 11 11 10 10 12 14 17 17 18 19 19 19 20 21 24 29
11 11 12 12 11 10 9 14 13 12 14 15 15 18 15 15 15 16 12 12 12 13 12 12 11 11 11 11 10 10 10 9 9 9 10 16 21 18 18 19 20 21 22 24 27
12 12 13 12 10 11 13 12 14 13 12 14 17 16 14 14 14 15 11 11 11 13 13 12 11 12 12 11 9 9 10 13 9 9 8 8 27 19 18 19 20 21 23 25 28
13 14 14 13 10 13 15 13 14 12 11 20 23 16 13 13 12 15 16 13 11 10 10 10 10 12 11 11 10 9 11 13 11 8 7 9 24 20 20 21 21 21 23 24 26
15 15 14 12 13 17 15 12 14 14 16 17 15 19 13 14 13 13 16 15 11 11 10 9 9 9 7 7 9 9 10 12 13 11 11 19 23 21 22 23 22 23 25 26 26
16 16 14 10 17 18 14 21 26 20 18 16 15 14 13 15 16 12 17 14 12 11 12 9 11 13 10 8 7 7 9 11 10 10 12 17 23 23 23 23 22 22 25 28 28
17 17 13 12 19 17 31 32 21 18 16 16 16 16 14 14 16 18 16 15 12 13 11 13 17 11 8 7 7 8 10 12 11 11 14 16 22 22 24 22 22 20 22 25 28
18 16 11 18 22 20 46 36 31 19 17 14 13 15 16 16 16 18 17 14 14 16 14 17 12 10 9 10 10 12 13 11 12 11 12 12 22 24 22 20 17 18 20 22 25
18 15 12 24 25 24 47 29 20 28 30 17 12 12 14 16 16 17 16 17 12 14 12 12 10 10 11 13 15 14 10 10 10 14 16 12 21 23 23 20 15 16 19 22 24
18 15 18 26 32 39 38 26 19 28 92 17 12 13 12 15 15 16 19 17 17 17 21 18 12 10 12 13 12 18 12 14 12 15 15 12 11 23 18 18 18 15 17 19 21
18 18 29 41 49 42 37 17 13 76 90 19 12 13 13 12 13 14 16 15 16 18 16 17 14 14 13 11 12 18 17 17 17 18 30 17 12 24 20 16 13 16 17 20 22
18 22 32 45 54 37 24 16 84 99 22 18 14 12 13 13 12 13 16 21 26 57 27 17 17 14 18 14 12 17 26 63 42 46 52 20 17 31 19 16 16 18 20 20 26
18 28 42 55 50 28 18 47 99 47 22 12 12 12 14 13 14 15 18 22 19 22 26 30 35 20 16 20 18 18 26 78 75 42 24 18 14 45 15 15 18 20 18 24 29
21 33 44 36 34 17 45 95 87 30 14 13 12 15 16 18 18 18 18 23 20 23 38 34 29 18 17 17 22 23 38 27 42 31 31 11 26 21 13 14 14 17 22 26 30
41 34 65 26 22 34 77 90 27 19 12 11 16 13 19 18 20 21 22 20 22 24 31 28 34 18 17 17 21 32 24 51 78 72 60 23 17 24 19 15 15 19 24 28 31
59 47 58 18 20 62 99 57 24 15 12 13 15 15 14 16 16 20 24 21 18 22 21 28 45 25 19 21 27 29 34 43 43 47 62 38 22 16 17 16 19 20 25 29 30
53 83 32 22 59 87 90 20 18 13 15 17 15 15 14 15 17 19 24 22 19 19 26 33 55 38 26 23 21 20 27 37 81 79 44 37 30 15 19 20 19 22 24 27 30
54 66 57 70 100 86 32 22 17 15 17 19 19 16 16 16 20 20 28 23 19 21 28 26 49 60 31 36 27 36 63 97 95 46 44 54 36 17 19 18 17 19 21 24 28
53 98 54 65 59 48 33 26 22 18 17 17 18 19 18 22 20 25 32 22 20 28 28 24 42 93 64 80 77 82 88 96 85 62 47 38 27 19 17 17 15 16 19 23 28
64 86 59 99 88 44 29 25 23 23 20 20 21 20 20 30 27 30 29 27 24 31 24 36 77 66 68 36 28 39 52 48 74 49 53 22 20 18 17 17 17 17 17 20 22
57 64 51 50 48 39 36 26 24 22 24 25 24 18 20 34 26 37 32 31 30 34 30 35 61 36 50 26 20 21 18 30 36 39 32 30 31 21 19 17 17 18 20 21 26
57 48 43 44 39 50 47 28 22 18 21 20 19 19 23 22 21 21 28 25 26 35 36 42 58 48 47 29 32 55 34 24 20 17 25 37 29 20 20 19 19 21 22 23 26
Wind_Speed
8 7 7 7 6 7 5 5 9 12 13 15 12 13 16 19 25 15 22 17 12 8 10 11 5 2 3 5 11 16 10 15 17 14 15 24 24 29 30 37 38 34 31 22 17
8 7 6 7 6 7 5 6 9 10 12 11 8 7 8 10 9 27 18 12 9 7 16 14 8 4 7 4 12 9 16 22 19 18 12 24 23 26 30 30 31 28 26 23 23
9 7 6 6 6 6 5 7 8 9 9 7 8 7 4 3 4 17 17 14 10 9 7 10 11 13 20 12 16 20 18 21 16 18 21 25 30 29 24 22 24 24 23 23 25
10 9 6 6 6 6 5 6 7 7 6 11 20 20 16 10 5 14 20 21 16 11 3 5 6 12 17 17 22 25 25 23 15 16 18 23 25 29 28 21 19 19 20 21 25
10 9 7 6 7 7 5 5 6 9 12 13 13 10 11 12 13 13 19 17 13 11 10 11 16 10 15 21 26 22 24 22 19 19 21 24 27 22 22 18 17 18 21 23 24
12 10 9 7 7 7 6 7 9 12 15 15 13 10 5 12 8 11 16 15 16 12 15 19 23 20 13 11 10 22 21 18 17 16 17 22 23 17 15 14 17 17 20 22 22
14 12 10 8 8 9 9 8 11 13 16 18 21 12 19 11 9 9 11 16 13 14 10 12 7 5 24 22 22 22 19 15 10 5 6 15 16 13 12 13 16 17 18 20 20
14 13 11 9 9 10 12 10 12 11 10 13 13 10 8 9 9 9 7 12 14 9 12 14 17 16 8 21 13 10 10 7 7 1 2 5 11 11 9 12 15 16 17 19 20
15 14 13 12 12 13 15 14 10 8 9 9 6 10 8 4 10 8 8 9 8 9 11 10 9 15 18 10 8 7 7 14 8 4 1 3 11 10 8 12 13 15 16 15 18
16 15 14 14 15 17 17 16 14 10 6 4 1 5 6 6 9 6 7 6 6 7 9 9 9 9 3 4 3 8 7 7 9 3 10 14 12 9 9 10 12 13 13 14 17
16 16 16 17 19 21 23 15 6 6 16 12 13 22 15 11 13 10 9 9 11 14 11 18 12 10 8 8 7 9 12 11 8 2 4 10 11 9 6 9 10 11 12 13 14
18 18 18 22 24 25 14 3 10 13 12 12 12 14 10 6 10 19 5 3 11 14 19 14 13 7 6 7 8 6 10 9 8 2 5 8 10 9 8 8 7 9 11 11 12
19 19 21 25 27 25 8 4 7 13 7 5 6 10 11 12 10 13 15 13 12 14 15 13 6 5 5 10 10 13 12 6 6 1 2 5 11 11 8 9 9 9 9 10 11
20 20 23 26 24 22 4 5 16 7 2 6 5 4 3 8 8 8 7 6 7 11 10 10 5 7 9 9 9 4 5 3 3 5 1 4 2 13 13 11 8 7 6 6 9
22 22 25 26 9 15 9 10 16 1 2 8 4 2 5 3 16 7 6 7 5 6 4 6 8 4 8 6 9 5 3 4 5 7 6 9 5 10 11 10 10 7 3 5 9
23 25 28 20 13 16 13 17 3 3 3 6 6 10 9 7 7 6 12 18 19 20 20 10 7 9 4 1 5 2 2 2 3 5 4 3 2 9 6 7 4 7 6 8 11
25 27 30 10 10 20 13 15 3 3 8 7 9 12 12 10 10 11 10 8 5 5 6 9 7 5 7 3 3 3 2 2 3 3 2 6 2 9 7 5 4 5 5 9 13
25 27 25 17 15 18 24 4 3 7 11 10 16 14 10 12 6 10 10 6 3 2 9 6 4 5 5 6 6 4 4 2 3 3 5 6 6 6 6 5 4 1 6 7 9
26 27 23 22 18 25 11 3 7 7 8 14 16 14 12 7 5 8 7 6 3 4 3 4 5 5 7 8 6 3 2 3 3 4 3 5 6 6 9 8 4 1 3 6 6
22 19 12 21 22 22 3 4 6 4 12 18 10 13 12 12 9 8 6 3 4 1 4 4 5 3 6 1 7 5 3 2 2 0 3 6 10 2 11 8 5 1 3 5 6
18 12 10 21 24 9 4 5 2 6 14 15 3 10 9 13 8 10 6 5 2 5 2 7 3 5 2 4 3 3 2 2 1 3 3 3 2 7 9 6 1 3 3 5 6
16 4 15 25 10 4 3 6 4 13 5 3 3 6 9 15 10 5 6 6 9 10 8 3 2 4 5 7 4 3 1 6 2 3 4 4 5 8 9 4 3 5 7 6 7
11 6 15 19 4 5 8 7 10 11 10 6 4 5 11 11 6 9 10 7 10 5 6 7 3 4 5 4 1 0 3 3 3 2 6 3 2 8 7 7 9 9 7 9 11
9 3 7 12 7 12 12 10 9 14 10 8 6 7 10 11 4 11 9 8 9 7 5 3 3 2 2 3 6 3 4 3 2 3 4 10 14 10 9 8 9 8 8 9 11
7 5 10 5 4 14 15 14 12 8 7 9 5 9 12 7 8 9 11 12 8 8 5 2 2 2 3 7 9 9 9 13 10 10 6 5 12 14 15 16 17 17 16 14 16
8 6 10 13 18 16 16 10 16 10 12 14 7 11 11 8 4 12 16 10 7 9 8 4 2 2 3 9 9 12 14 18 19 18 19 19 23 21 19 14 11 13 14 16 17
4 8 10 16 18 11 10 11 15 16 11 12 12 10 9 5 5 13 16 11 8 11 9 7 3 2 1 3 7 8 15 17 17 18 17 15 14 18 15 17 16 17 17 19 17
Wind_Direction
155 160 155 136 137 114 122 177 158 138 121 107 94 88 81 68 53 51 46 18 18 58 30 354 19 53 10 323 309 301 130 92 95 94 106 93 84 74 75 72 63 65 65 64 56
161 164 161 145 141 128 149 189 163 148 133 110 85 58 83 80 58 34 30 34 30 57 46 38 56 57 40 13 338 313 93 91 88 77 61 55 66 81 70 62 63 63 60 58 55
169 168 165 157 149 140 168 191 167 157 144 106 49 45 40 354 347 10 33 48 48 55 26 54 73 72 59 56 39 78 101 100 84 112 98 78 64 57 68 58 55 54 57 55 54
176 168 172 167 153 150 178 203 163 153 127 93 90 78 58 11 34 357 37 38 29 54 28 62 70 79 83 67 79 90 91 98 94 80 79 78 77 64 62 63 61 61 57 53 51
180 170 174 177 167 155 178 195 144 122 106 92 98 86 83 70 34 12 23 31 30 70 68 72 83 88 90 92 85 95 97 96 99 93 87 85 74 72 62 63 59 62 59 57 51
182 173 177 185 176 156 169 158 122 116 108 105 76 70 85 72 22 13 21 34 50 68 74 90 102 103 92 114 97 121 114 112 106 102 93 80 63 71 57 59 62 59 58 53 50
184 174 176 185 180 161 159 149 123 118 113 108 106 64 71 60 8 23 34 46 44 60 80 102 111 99 112 101 120 122 111 93 100 70 107 111 62 56 64 65 65 61 56 53 44
186 173 174 181 180 160 149 146 127 125 108 100 92 64 75 49 48 39 49 50 51 74 86 82 108 119 90 131 132 145 161 123 56 215 99 236 91 70 64 75 68 61 58 54 45
186 175 174 177 172 156 138 127 119 115 111 72 52 95 91 33 38 29 41 44 55 78 96 94 116 116 135 146 156 187 87 104 88 54 115 222 105 91 81 80 70 61 56 49 47
185 175 173 172 164 153 131 105 84 71 26 46 57 95 89 51 23 33 34 46 86 113 128 139 140 158 127 227 9 115 95 71 100 22 86 85 109 111 92 79 78 66 56 46 43
185 176 173 171 162 149 128 110 83 59 58 77 83 99 109 91 58 43 71 68 85 75 73 44 81 61 51 34 40 92 105 103 102 313 90 121 131 117 100 84 64 63 51 42 33
185 177 173 170 161 154 141 61 74 123 96 86 89 90 100 78 64 35 52 64 109 106 100 76 66 43 42 45 54 86 123 97 106 101 248 160 134 127 125 104 79 56 51 44 33
184 176 172 170 165 168 117 150 125 136 111 77 86 87 93 88 59 32 50 75 77 70 52 80 85 51 68 58 71 44 37 33 20 72 307 199 156 158 151 130 103 72 50 39 26
183 174 171 171 174 170 188 180 159 145 115 138 191 134 120 134 63 53 67 79 84 90 85 68 46 80 84 61 346 107 20 327 288 256 266 199 104 179 159 149 130 98 65 34 8
181 173 171 166 179 177 198 181 165 34 121 171 139 124 150 279 146 51 47 92 119 115 127 67 47 43 56 28 343 55 346 331 313 280 324 198 257 121 153 177 143 110 58 14 344
179 173 168 163 146 183 192 166 129 57 253 172 151 161 142 127 99 119 97 89 91 88 84 95 83 34 35 23 18 66 263 231 261 274 263 138 328 144 153 66 60 79 38 355 353
178 173 171 177 188 180 177 157 79 131 164 169 173 174 141 135 133 146 152 154 151 116 115 108 76 88 13 265 163 233 339 258 209 178 256 106 275 82 92 83 57 36 355 9 12
176 170 168 191 178 179 156 181 135 172 187 159 152 171 156 140 122 143 150 125 106 229 156 154 159 357 18 20 0 20 338 352 251 315 13 153 241 134 107 108 90 24 22 16 13
172 177 183 185 167 162 182 97 199 196 159 155 164 170 152 148 156 195 202 124 102 331 154 127 104 106 57 46 342 60 64 12 294 232 271 257 102 171 155 136 136 34 15 11 357
157 167 192 187 171 160 173 217 199 299 158 160 171 194 175 178 160 176 162 103 121 78 351 71 116 195 104 265 59 10 66 205 58 225 258 280 305 193 167 169 140 334 12 346 347
155 164 204 178 168 172 151 228 162 187 165 185 172 192 182 167 184 180 151 136 119 136 108 106 112 135 152 191 108 137 132 72 283 288 276 302 61 56 112 103 55 318 332 313 324
174 121 162 161 158 163 187 200 188 171 106 88 257 218 178 158 166 139 161 162 150 150 132 70 119 153 112 84 12 326 172 176 227 192 254 312 286 82 103 91 291 291 296 284 295
144 116 163 162 148 182 201 155 186 155 162 176 172 231 147 163 141 131 108 133 156 155 150 184 156 128 164 146 85 290 58 110 93 312 245 255 253 141 156 226 256 244 266 288 287
147 106 151 194 196 179 179 169 167 187 158 173 165 168 173 139 138 149 134 158 161 113 91 141 195 183 168 102 111 171 208 183 145 197 250 235 261 258 231 255 296 314 298 294 282
174 168 165 184 245 195 185 179 173 167 152 172 177 203 168 152 147 151 154 141 165 128 165 147 159 105 205 229 204 195 200 197 208 225 227 272 311 323 325 315 314 308 303 287 284
158 151 170 156 172 194 190 203 183 175 161 187 198 192 164 164 175 168 151 171 172 168 177 141 171 248 251 237 246 258 249 214 210 223 246 265 276 283 289 301 290 285 294 293 287
163 151 156 155 180 190 195 207 191 182 178 196 203 176 144 133 104 146 157 166 150 164 174 163 131 188 189 27 334 280 249 241 249 241 230 246 265 288 295 294 300 310 309 291 291